[[{"header":{"parameterUnit":"m.s-1","parameterCategory":1,"la1":30.2991,"la2":30.254,"lo1":-89.0895,"lo2":-89.0444,"dy":0.0017,"dx":0.0017,"nx":28,"ny":28,"refTime":"2024-07-01T21:00:00:Z","depth":0,"parameterNumber":2,"parameterNumberName":"U-component_of_WINDS"},"data":[0,0,0,0,0,0,0,0,0,0,0,0,0,0,0,0,0,0,0,0,0,0,0,0,0,0,0,0,0,0,0,0,0,0,0,0,0,0,0,0,0,0,0,0,0,0,0,0,0,0,0,0,0,0,0,0,0,0,3.4411,3.4412,0,3.446,3.4461,3.4461,3.4407,3.4405,3.4403,3.4401,3.4452,3.4455,3.4458,0,0,0,0,0,0,0,0,0,0,0,0,0,3.427,3.4273,3.4411,3.4412,3.4412,3.446,3.4461,3.4462,3.4407,3.4405,3.4402,3.44,3.4451,3.4454,3.4458,0,0,0,0,0,0,0,0,0,0,0,0,0,3.4327,3.4274,3.4411,3.4391,3.439,3.446,3.4461,3.4462,3.4408,3.4405,3.4401,3.4399,3.4449,3.4454,3.4459,3.4552,0,0,3.4474,3.4476,0,0,0,0,0,0,0,0,3.4323,3.4332,3.4393,3.4392,3.4391,3.4424,3.443,3.4492,3.4408,3.4401,3.4401,3.4397,3.4445,3.445,3.4466,3.4554,3.4556,3.4474,3.4477,3.448,3.4481,0,0,0,0,0,0,0,3.432,3.4329,3.4431,3.4394,3.4393,3.4379,3.4384,3.4441,3.444,3.4401,3.4397,3.4404,3.4444,3.4462,3.4467,3.4557,3.4474,3.4479,3.4482,3.4484,3.4722,3.4725,0,0,0,0,0,0,3.4318,3.4326,3.4429,3.4432,3.4349,3.4385,3.439,3.4417,3.4439,3.4439,3.4407,3.4401,3.4455,3.4461,3.4469,3.4576,3.448,3.4484,3.4487,3.4719,3.4723,3.4726,0,0,0,0,0,0,3.4315,3.4328,3.4427,3.4378,3.439,3.439,3.4421,3.4419,3.4437,3.4443,3.4443,3.4425,3.4453,3.4462,3.4531,3.4578,3.4486,3.4491,3.4715,3.472,3.4725,3.4795,0,0,0,0,0,0,3.4311,3.4327,3.4362,3.4379,3.4393,3.4489,3.4424,3.4423,3.4445,3.4439,3.446,3.4461,3.4451,3.4524,3.4536,3.4583,3.4495,3.471,3.4717,3.4723,3.4788,3.4801,3.4813,0,0,0,0,0,3.4306,3.438,3.4364,3.4377,3.4437,3.4491,3.4499,3.4486,3.445,3.4484,3.4489,3.446,3.4572,3.4532,3.4545,3.4594,3.4707,3.4715,3.4723,3.4783,3.4799,3.4813,0,0,0,0,0,0,3.4368,3.4382,3.4364,3.4446,3.4468,3.4482,3.4525,3.4504,3.4537,3.4529,3.4512,3.4517,3.459,3.46,3.4555,3.4684,3.4633,3.4644,3.4675,3.469,3.4702,3.4697,3.4499,0,0,0,0,0,3.4391,3.4435,3.4445,3.4516,3.4528,3.4525,3.4549,3.4537,3.4559,3.4568,3.4577,3.4599,3.4639,3.4666,3.4703,3.4791,3.4793,3.4831,3.4843,3.4853,3.4862,3.4906,3.4922,3.4751,3.4751,3.4751,0,0,3.4439,3.4452,3.4481,3.4528,3.4544,3.4589,3.4533,3.4583,3.4616,3.4575,3.464,3.4649,3.4673,3.4751,3.4786,3.476,3.491,3.4863,3.4871,3.4874,3.4916,3.4932,3.4946,3.4756,3.4756,3.4755,0,0,3.4548,3.4564,3.4624,3.4641,3.4665,3.4663,3.4678,3.4696,3.4699,3.4764,3.4734,3.4774,3.4844,3.4861,3.4879,3.4997,3.4971,3.501,3.5073,3.5117,3.5131,3.5142,3.5182,3.5196,3.5019,3.5019,3.5019,0,3.4604,3.4671,3.4657,3.4709,3.473,3.4697,3.4756,3.4774,3.4809,3.4825,3.4796,3.4882,3.4897,3.4977,3.5006,3.5023,3.5038,3.5006,3.513,3.5142,3.5152,3.5189,3.5205,3.5023,3.5023,3.5023,3.5022,0,3.4737,3.4784,3.4829,3.4864,3.4891,3.4947,3.4941,3.4971,3.4957,3.4958,3.5025,3.5041,3.508,3.5099,3.5087,3.5178,3.5162,3.5133,3.508,3.5173,3.5208,3.5222,3.503,3.5028,3.5027,3.5026,0,0,3.4883,3.4911,3.4927,3.4942,3.4967,3.5003,3.5058,3.5096,3.512,3.5147,3.519,3.5251,3.5223,3.5244,3.5234,3.5273,3.5362,3.5239,3.5239,3.5258,3.5461,3.548,3.5497,3.5347,3.535,3.5352,3.5458,0,3.4991,3.5084,3.5074,3.5163,3.5205,3.5174,3.5222,3.5242,3.5245,3.5281,3.5285,3.5327,3.5289,3.5301,3.5339,3.5343,3.5402,3.5336,3.5386,3.5388,3.5377,3.5515,3.5536,3.5635,3.5472,3.5474,3.5476,0,3.5127,3.5158,3.5251,3.5269,3.5286,3.5329,3.5362,3.5398,3.5421,3.542,3.5444,3.5427,3.5481,3.5432,3.5505,3.5461,3.5481,3.5487,3.549,3.5491,3.5434,3.5517,3.5667,3.568,3.5497,3.5496,3.5494,0,3.5221,3.5286,3.5349,3.5363,3.5387,3.5417,3.5429,3.5448,3.5472,3.5502,3.5517,3.5553,3.5572,3.5601,3.5594,3.5559,3.5669,3.5619,3.5668,3.5669,3.569,3.5688,3.5841,3.5709,3.5709,3.5709,3.5709,0,3.5339,3.5396,3.5391,3.543,3.5493,3.5482,3.5545,3.5552,3.5571,3.561,3.5587,3.5625,3.5615,3.5653,3.5648,3.5709,3.5719,3.5718,3.5716,3.5718,3.5718,3.5728,3.572,3.5713,3.5712,3.5711,3.5711,0,3.5452,3.5451,3.5518,3.5535,3.5541,3.5587,3.5601,3.5637,3.564,3.569,3.5701,3.5704,3.5746,3.5744,3.5792,3.5789,3.5863,3.5854,3.5854,3.5851,3.5899,3.5893,3.6062,3.6083,3.5941,3.5942,3.5943,0,3.5525,3.5569,3.5591,3.5615,3.5629,3.5669,3.5693,3.5685,3.571,3.574,3.5772,3.5813,3.5844,3.5914,3.592,3.5957,3.5946,3.6003,3.5952,3.5952,3.5943,3.5939,3.5942,3.6012,3.6014,3.6015,3.6016,0,3.5655,3.5653,3.5688,3.5723,3.5752,3.5779,3.5804,3.5826,3.582,3.585,3.5893,3.5918,3.5967,3.6007,3.6042,3.6054,3.6033,3.6033,3.6045,3.6046,3.6043,3.6042,3.5878,3.6028,3.6027,3.6026,3.6025,3.6025,3.5748,3.5784,3.5805,3.5845,3.5863,3.5887,3.5921,3.5928,3.5964,3.6003,3.5997,3.6045,3.6067,3.6112,3.6127,3.6164,3.6143,3.6163,3.6167,3.6171,3.6174,3.6041,3.6171,3.617,3.617,3.617,3.617,0,3.5873,3.5886,3.5923,3.5958,3.5989,3.597,3.5996,3.6023,3.6066,3.6088,3.612,3.6169,3.6208,3.6218,3.6255,3.6283,3.6274,3.6293,3.6288,3.6291,3.6192,3.6176,3.6299,3.6299,3.6299,3.6299,3.6299,3.6299,3.5941,3.6001,3.6002,3.607,3.6083,3.6129,3.6146,3.6168,3.6185,3.6241,3.6273,3.628,3.6297,3.6336,3.637,3.6372,3.6385,3.6407,3.6405,3.6311,3.6298,3.6286,3.627,3.6411,3.6411,3.65,3.6501,3.6501]},{"header":{"parameterUnit":"m.s-1","parameterCategory":1,"la1":30.2991,"la2":30.254,"lo1":-89.0895,"lo2":-89.0444,"dy":0.0017,"dx":0.0017,"nx":28,"ny":28,"refTime":"2024-07-01T21:00:00:Z","depth":0,"parameterNumber":3,"parameterNumberName":"V-component_of_WINDS"},"data":[0,0,0,0,0,0,0,0,0,0,0,0,0,0,0,0,0,0,0,0,0,0,0,0,0,0,0,0,0,0,0,0,0,0,0,0,0,0,0,0,0,0,0,0,0,0,0,0,0,0,0,0,0,0,0,0,0,0,1.8366,1.8366,0,1.8442,1.8443,1.8443,1.8461,1.8461,1.846,1.846,1.8536,1.8538,1.8541,0,0,0,0,0,0,0,0,0,0,0,0,0,1.8235,1.8237,1.8366,1.8367,1.8368,1.8442,1.8443,1.8444,1.8461,1.8461,1.846,1.8459,1.8535,1.8538,1.8541,0,0,0,0,0,0,0,0,0,0,0,0,0,1.8299,1.8238,1.8365,1.8385,1.8388,1.8441,1.8443,1.8444,1.8461,1.8461,1.846,1.8459,1.8534,1.8538,1.8541,1.858,0,0,1.8553,1.8554,0,0,0,0,0,0,0,0,1.8295,1.8304,1.8381,1.8384,1.8387,1.8441,1.8424,1.8489,1.8462,1.8433,1.846,1.8459,1.8505,1.8511,1.8527,1.8583,1.8587,1.8553,1.8555,1.8557,1.8558,0,0,0,0,0,0,0,1.8291,1.8301,1.8396,1.8383,1.8386,1.839,1.8398,1.8437,1.8472,1.8436,1.8437,1.8446,1.8506,1.8523,1.8529,1.8588,1.8553,1.8556,1.8559,1.856,1.8681,1.8682,0,0,0,0,0,0,1.8283,1.8297,1.8393,1.8398,1.8338,1.8393,1.8402,1.8425,1.8472,1.8479,1.8447,1.8447,1.8517,1.8524,1.8531,1.8581,1.8557,1.856,1.8563,1.868,1.8681,1.8682,0,0,0,0,0,0,1.828,1.8292,1.839,1.8348,1.8361,1.8396,1.8421,1.8426,1.8444,1.848,1.8487,1.8458,1.8517,1.8526,1.8568,1.8583,1.8562,1.8566,1.8679,1.868,1.8681,1.8678,0,0,0,0,0,0,1.8276,1.829,1.8306,1.8348,1.8363,1.8426,1.8422,1.8429,1.845,1.8451,1.8492,1.8498,1.8517,1.8562,1.8572,1.8588,1.8568,1.8677,1.8679,1.8681,1.8677,1.868,1.8681,0,0,0,0,0,1.8272,1.8301,1.8306,1.8318,1.8383,1.8427,1.8435,1.8456,1.8451,1.8467,1.8491,1.8497,1.858,1.8566,1.8577,1.8595,1.8677,1.8679,1.8681,1.8676,1.8679,1.8681,0,0,0,0,0,0,1.8259,1.8307,1.8313,1.8358,1.8388,1.843,1.845,1.8458,1.8491,1.849,1.8514,1.8523,1.8564,1.8583,1.8567,1.8635,1.8628,1.8633,1.8621,1.8624,1.8626,1.8621,1.8572,0,0,0,0,0,1.8261,1.8293,1.8333,1.8369,1.8384,1.8414,1.8434,1.8448,1.848,1.8493,1.852,1.855,1.8583,1.8605,1.8637,1.868,1.869,1.8698,1.87,1.8701,1.8705,1.873,1.8734,1.8689,1.8689,1.8689,0,0,1.8266,1.8297,1.8315,1.8367,1.8392,1.8425,1.8425,1.8459,1.8483,1.8498,1.854,1.856,1.8596,1.8639,1.8659,1.8656,1.8719,1.8704,1.8705,1.8708,1.8732,1.8737,1.874,1.869,1.869,1.869,0,0,1.8292,1.8318,1.8351,1.8376,1.8415,1.8435,1.8443,1.8484,1.8498,1.8541,1.8553,1.8582,1.8638,1.8663,1.8683,1.872,1.8727,1.873,1.8741,1.8765,1.8768,1.8772,1.8785,1.879,1.8733,1.8733,1.8733,0,1.8294,1.8344,1.8366,1.8401,1.8423,1.8439,1.8472,1.8495,1.8542,1.8557,1.8554,1.8625,1.865,1.87,1.8709,1.8724,1.8734,1.8725,1.8766,1.877,1.8773,1.8786,1.8791,1.8733,1.8733,1.8733,1.8733,0,1.8344,1.8378,1.84,1.8446,1.8471,1.8504,1.8531,1.8554,1.8566,1.8586,1.8629,1.866,1.8699,1.8712,1.8723,1.8763,1.8761,1.8761,1.8755,1.8777,1.879,1.8795,1.8733,1.8733,1.8733,1.8733,0,0,1.8363,1.8422,1.843,1.8451,1.8495,1.8522,1.8556,1.8596,1.8615,1.8646,1.8676,1.8724,1.8725,1.8748,1.8762,1.8783,1.8811,1.8782,1.8783,1.8787,1.8858,1.8858,1.8863,1.8816,1.8817,1.8818,1.8855,0,1.8395,1.8458,1.848,1.8531,1.8563,1.8579,1.8609,1.8639,1.8659,1.8689,1.8711,1.8745,1.8744,1.8758,1.8779,1.8803,1.8826,1.8801,1.8844,1.8845,1.8835,1.887,1.8869,1.8903,1.886,1.8861,1.8862,0,1.8441,1.8475,1.8529,1.857,1.8585,1.8611,1.865,1.8678,1.8713,1.8726,1.8752,1.8765,1.8801,1.8793,1.8843,1.8825,1.8844,1.8859,1.886,1.8866,1.8855,1.8877,1.8914,1.8919,1.887,1.8869,1.8869,0,1.8451,1.8509,1.855,1.8568,1.8617,1.8635,1.8656,1.869,1.8712,1.8746,1.8761,1.8797,1.8817,1.8845,1.8868,1.8859,1.8916,1.8909,1.8929,1.8928,1.894,1.8939,1.8982,1.8951,1.8951,1.8951,1.8951,0,1.8484,1.8517,1.8556,1.8581,1.8618,1.8643,1.8679,1.8701,1.8731,1.8761,1.8776,1.8803,1.8831,1.8862,1.888,1.8919,1.8928,1.894,1.8944,1.8939,1.8938,1.8952,1.895,1.8952,1.8952,1.8952,1.8952,0,1.8501,1.8528,1.8574,1.8617,1.8628,1.8654,1.8691,1.8715,1.8736,1.8774,1.8784,1.8817,1.8854,1.8879,1.8927,1.8939,1.8982,1.8985,1.897,1.8973,1.8991,1.8989,1.9045,1.9054,1.9016,1.9017,1.9017,0,1.8521,1.8547,1.8593,1.8615,1.8636,1.867,1.8693,1.8719,1.8742,1.8784,1.8804,1.8843,1.8875,1.8934,1.8962,1.8998,1.9003,1.902,1.9009,1.9003,1.9004,1.9003,1.9006,1.9022,1.9022,1.9022,1.9023,0,1.8554,1.8566,1.86,1.8639,1.8666,1.8698,1.8729,1.8746,1.8776,1.8802,1.8841,1.8866,1.8915,1.8953,1.8993,1.9014,1.9024,1.9026,1.9033,1.9028,1.9018,1.9024,1.8976,1.9025,1.9024,1.9024,1.9024,1.9024,1.8574,1.8598,1.8634,1.8672,1.8698,1.8727,1.8753,1.8778,1.8811,1.8854,1.8867,1.8907,1.8942,1.8996,1.9018,1.905,1.9048,1.9057,1.906,1.9062,1.9062,1.9013,1.9057,1.9057,1.9057,1.9057,1.9057,0,1.8608,1.8632,1.8666,1.871,1.874,1.8747,1.8782,1.8806,1.8842,1.8874,1.8906,1.8951,1.8988,1.9019,1.9058,1.9077,1.9083,1.9087,1.9086,1.9091,1.9061,1.9052,1.9082,1.9082,1.9082,1.9082,1.9082,1.9082,1.8629,1.8671,1.8687,1.8743,1.8767,1.8808,1.8827,1.8854,1.888,1.893,1.8962,1.8982,1.9014,1.9055,1.9089,1.9098,1.9111,1.9114,1.9124,1.9095,1.9093,1.909,1.9081,1.9117,1.9117,1.9151,1.9151,1.9151]}]]